Wind_Speed
24 26 28 29 30 32 34 36 38 40 42 42 43 45 45 48 52 53 56 59 63 67 72 76 79 83 86 88 90 90 88 85 84 82 79 77 74 73 70 67 64 62 60
25 27 29 31 33 34 35 36 37 38 40 44 47 48 49 50 53 54 56 61 64 66 70 75 80 83 84 87 92 93 93 91 88 86 84 83 80 77 74 70 68 65 61
29 30 32 33 35 37 37 38 39 39 40 43 46 48 50 51 52 55 57 61 64 66 69 74 80 85 87 88 90 95 96 96 94 90 88 87 85 83 77 74 71 68 66
28 28 28 29 31 31 32 32 34 36 39 41 42 43 46 49 52 55 58 56 58 61 66 72 76 84 89 92 92 91 97 99 98 96 93 90 88 87 83 79 75 72 69
28 30 31 33 35 34 34 32 32 32 33 38 41 42 43 44 47 50 50 50 51 56 59 63 67 75 88 94 96 95 94 98 100 99 98 95 92 90 86 84 79 75 71
28 29 30 31 32 33 33 32 33 34 36 40 43 44 44 44 44 46 44 49 53 56 59 62 63 67 78 93 99 98 96 94 97 101 101 99 96 94 91 86 83 80 74
29 30 29 31 32 34 34 33 34 36 37 39 43 43 45 46 45 48 47 43 50 58 62 64 67 68 68 77 95 100 99 96 94 95 99 100 99 99 96 90 85 84 79
31 31 32 33 34 36 36 35 35 38 39 39 40 44 39 40 44 47 48 47 43 48 54 59 63 60 58 62 74 94 99 97 95 91 90 94 97 99 99 95 90 86 82
32 34 35 34 35 35 35 35 35 37 40 45 48 49 44 38 33 39 39 40 37 42 48 49 44 41 40 47 58 72 88 96 94 91 88 86 88 93 97 96 93 89 86
34 33 33 36 38 38 39 39 39 40 43 47 49 54 49 42 36 30 31 34 36 39 38 33 28 21 21 22 36 53 67 78 84 87 89 81 75 76 73 83 90 92 89
36 37 35 36 39 40 43 43 43 45 47 48 49 49 44 41 37 31 22 28 32 32 29 24 21 15 8 15 18 32 41 55 72 75 73 67 70 68 75 71 81 96 96
37 38 39 39 41 45 46 48 48 49 50 50 51 49 43 36 34 28 22 23 26 26 23 20 18 10 10 14 7 19 31 27 50 66 65 63 64 68 69 73 75 86 98
39 39 41 43 44 48 50 51 53 53 52 51 50 47 40 37 32 27 20 20 21 21 18 15 13 5 18 17 18 29 23 39 49 52 60 60 62 61 65 69 65 73 87
40 41 43 45 47 50 53 55 57 57 56 54 49 45 37 36 31 29 21 16 18 19 14 12 8 5 21 22 33 22 15 31 45 54 55 56 56 57 62 65 68 65 71
41 43 44 47 48 51 55 58 60 61 59 55 49 43 36 33 30 30 24 18 14 15 14 9 6 3 23 32 25 17 27 21 28 51 56 46 58 57 60 64 63 60 63
42 44 45 48 49 52 56 60 63 64 63 56 47 42 35 32 27 28 24 19 16 12 12 8 4 3 12 36 26 30 32 41 27 21 60 64 56 48 57 64 60 52 57
43 45 46 48 50 52 57 61 65 66 67 57 47 40 33 27 25 26 26 22 16 13 11 10 5 3 6 18 38 35 29 36 31 24 25 61 69 68 44 52 61 65 60
43 44 45 48 50 52 57 61 66 68 70 60 47 36 27 20 22 26 26 24 15 16 10 9 8 5 5 8 19 36 39 33 53 58 47 42 56 70 70 61 55 59 57
43 43 44 46 49 51 55 60 66 70 73 64 48 33 23 19 19 23 25 23 17 16 15 10 9 6 5 9 11 16 32 46 37 42 55 62 59 54 65 73 70 69 66
42 42 42 44 46 49 53 58 65 70 74 68 51 34 22 16 16 20 23 22 21 17 15 13 10 8 7 6 10 14 16 21 40 49 47 45 53 62 62 61 61 63 61
41 41 40 43 44 46 50 55 63 69 73 69 52 33 20 14 14 18 21 22 22 21 18 13 11 11 7 6 6 9 14 18 23 27 34 40 47 50 54 60 61 61 65
40 40 39 40 41 44 47 52 60 66 72 69 54 34 20 13 13 17 19 20 22 24 22 19 13 9 8 8 6 5 8 11 16 18 22 27 30 38 44 46 50 54 56
38 37 37 38 39 42 45 48 56 61 69 70 59 43 24 15 14 16 18 21 23 24 23 22 20 16 10 7 8 5 6 7 10 12 15 18 23 29 34 39 43 45 48
38 36 35 36 37 39 42 44 50 56 64 67 67 53 35 20 16 17 18 21 23 22 23 23 22 21 18 12 10 3 4 7 6 9 10 12 17 20 25 30 36 41 45
37 36 34 34 35 36 39 41 44 50 55 61 64 62 48 30 20 20 20 20 21 22 21 21 21 21 21 20 16 13 7 1 5 7 6 8 13 16 20 24 28 32 36
36 36 34 32 33 34 36 39 39 44 49 54 59 56 57 43 28 22 21 21 20 21 22 22 21 21 20 19 18 16 13 10 7 4 3 6 10 12 15 16 20 24 29
Wind_Direction
326 320 317 315 312 308 303 299 295 289 285 282 282 279 276 274 272 273 272 270 265 261 256 251 248 243 238 237 240 240 239 238 236 235 234 233 233 235 235 235 236 238 238
333 331 326 321 316 312 307 304 301 298 292 286 284 282 280 277 277 276 276 274 268 261 256 252 248 246 243 237 234 237 237 237 236 235 235 234 233 233 234 234 235 236 238
334 330 326 323 319 314 308 303 299 297 296 292 289 285 283 282 281 279 282 279 269 263 257 250 247 245 243 241 236 233 233 235 235 235 234 234 234 233 232 233 233 234 235
354 354 355 355 352 346 334 320 309 303 301 301 299 293 289 288 287 288 291 283 269 261 260 256 248 244 242 240 238 235 231 231 232 233 233 233 234 234 232 231 232 232 233
11 8 4 4 2 358 358 356 351 341 325 310 303 300 295 293 293 296 290 275 266 263 267 267 264 254 242 238 237 236 233 230 229 230 231 231 232 234 233 232 231 231 230
10 7 8 8 6 2 1 355 347 343 343 331 320 309 305 299 299 296 288 271 265 265 269 273 274 269 255 239 235 234 233 231 229 228 228 229 230 232 233 232 231 231 229
10 6 5 4 3 3 1 357 352 346 339 340 332 320 312 308 304 298 292 281 269 267 271 272 276 274 263 250 237 232 231 231 230 229 229 227 227 229 232 232 230 230 229
7 5 4 0 1 357 353 350 348 342 337 332 333 328 316 313 309 304 296 293 284 278 277 279 278 273 263 251 242 233 228 227 229 229 230 230 228 227 229 230 229 229 228
1 360 359 356 354 349 346 343 340 337 336 331 328 327 327 316 313 309 297 296 291 289 289 286 281 275 265 250 238 232 229 226 225 226 228 230 229 229 228 229 228 228 227
359 357 357 354 350 346 342 340 339 336 333 330 330 329 334 328 319 318 297 297 296 296 297 293 291 276 273 259 243 231 224 224 223 222 224 227 229 228 226 229 227 227 227
356 354 352 350 347 344 342 340 339 337 335 333 332 332 336 330 327 323 298 302 307 307 308 303 294 268 244 221 243 220 221 220 219 219 217 220 223 223 223 221 226 227 226
353 351 349 348 347 343 343 341 342 340 338 336 335 335 337 331 331 326 312 307 316 316 317 310 306 269 159 131 208 181 165 213 219 214 212 214 218 220 221 223 223 223 225
350 349 347 347 347 345 344 344 344 344 340 340 337 337 338 332 338 334 324 309 319 326 321 318 315 240 154 155 152 148 204 213 207 213 210 208 214 216 217 223 224 224 225
349 349 348 346 348 346 344 345 346 345 346 344 340 338 338 336 342 343 338 320 318 332 328 324 321 195 160 151 175 173 184 215 219 213 211 205 214 212 218 221 222 223 223
349 349 349 348 349 347 346 347 348 348 348 347 342 338 342 341 347 349 345 341 323 331 338 328 312 216 168 151 146 175 205 177 197 215 211 206 217 218 215 219 221 224 225
349 348 350 349 350 349 348 350 349 350 351 350 344 343 349 348 349 352 351 346 339 324 336 335 318 249 188 189 166 164 195 213 196 205 213 216 205 198 213 222 220 213 227
348 349 351 350 352 352 351 352 351 353 354 353 348 348 352 356 356 356 358 356 346 340 327 345 322 249 213 197 207 197 169 186 203 179 201 210 213 211 204 207 211 219 225
347 349 351 351 353 354 354 354 353 355 357 357 352 354 358 2 3 2 6 2 4 5 345 340 343 307 229 214 208 215 204 195 215 227 233 223 216 218 221 219 222 216 222
347 349 352 353 355 355 356 357 358 357 2 2 1 3 6 15 17 9 11 10 11 12 13 347 344 336 296 235 217 220 218 224 222 221 222 229 235 221 224 225 230 235 235
348 350 352 354 357 358 359 0 3 359 6 6 9 13 18 23 31 19 15 15 14 6 7 11 358 336 333 296 252 228 229 223 223 230 231 229 231 231 229 233 234 236 240
349 351 353 355 359 360 1 3 7 5 8 9 13 18 24 35 38 30 21 19 18 18 14 0 1 8 336 317 294 265 238 229 235 236 231 231 234 236 234 229 232 237 234
351 353 354 355 0 1 3 6 10 9 9 13 13 15 22 34 36 32 27 20 22 21 21 19 8 357 359 6 296 303 266 248 235 240 241 241 235 223 229 237 236 234 237
352 353 354 355 1 3 3 7 12 13 12 13 14 14 12 16 24 28 27 22 22 24 21 22 23 21 6 0 356 302 271 259 245 238 237 237 242 239 233 229 235 241 241
353 353 356 355 1 4 4 8 13 15 16 13 14 16 12 4 8 19 25 27 25 25 25 26 26 29 29 28 17 12 257 262 275 257 248 241 238 236 239 240 241 241 241
353 354 358 356 358 4 4 8 12 15 17 16 14 15 16 6 359 6 14 21 26 25 27 31 33 31 33 37 37 40 45 3 266 263 252 242 245 242 239 236 238 242 245
355 354 358 358 357 2 5 8 12 13 16 16 15 16 16 15 5 357 1 8 16 24 26 27 29 33 35 34 31 35 40 39 36 19 297 270 259 249 246 245 244 244 245
Height
5733 5730 5727 5724 5721 5717 5714 5710 5706 5703 5700 5697 5694 5692 5690 5688 5686 5683 5681 5680 5679 5679 5682 5687 5691 5696 5703 5712 5720 5731 5740 5749 5757 5766 5774 5782 5789 5797 5805 5813 5820 5827 5834
5729 5725 5721 5718 5713 5709 5705 5701 5698 5693 5689 5686 5682 5679 5676 5673 5670 5667 5665 5661 5659 5660 5660 5663 5668 5674 5680 5688 5696 5707 5718 5729 5739 5749 5757 5766 5774 5782 5791 5799 5807 5815 5822
5725 5721 5716 5711 5705 5700 5695 5692 5688 5684 5679 5674 5670 5665 5661 5656 5653 5649 5646 5641 5638 5637 5638 5639 5642 5649 5656 5664 5673 5682 5693 5706 5718 5730 5739 5748 5757 5766 5776 5785 5793 5801 5809
5723 5718 5713 5707 5702 5695 5689 5684 5679 5675 5670 5664 5657 5651 5645 5639 5633 5629 5623 5619 5617 5615 5614 5614 5620 5624 5630 5639 5649 5659 5670 5681 5695 5708 5720 5731 5739 5749 5759 5770 5779 5787 5795
5723 5717 5711 5706 5700 5693 5687 5681 5674 5668 5662 5655 5647 5638 5630 5624 5617 5611 5604 5601 5600 5598 5596 5596 5596 5598 5602 5611 5622 5634 5645 5658 5671 5685 5699 5711 5722 5731 5742 5753 5764 5773 5781
5722 5717 5711 5705 5698 5691 5683 5676 5669 5662 5655 5647 5637 5626 5617 5609 5603 5596 5592 5588 5586 5583 5579 5577 5577 5576 5576 5583 5593 5608 5622 5635 5648 5661 5676 5690 5703 5713 5723 5736 5747 5757 5766
5722 5716 5710 5704 5696 5689 5681 5674 5666 5657 5647 5638 5628 5617 5605 5595 5588 5582 5576 5574 5571 5567 5564 5560 5557 5551 5551 5557 5566 5581 5598 5612 5626 5639 5653 5667 5681 5692 5703 5717 5729 5740 5751
5721 5715 5708 5701 5694 5686 5678 5670 5661 5651 5640 5631 5620 5608 5601 5589 5576 5567 5559 5557 5556 5552 5547 5543 5537 5531 5529 5533 5541 5555 5573 5590 5606 5620 5634 5646 5660 5672 5683 5698 5710 5721 5734
5720 5714 5706 5699 5691 5682 5674 5666 5656 5646 5635 5620 5607 5597 5587 5579 5573 5557 5549 5546 5544 5539 5533 5527 5521 5516 5513 5514 5521 5533 5550 5567 5584 5602 5616 5627 5639 5651 5664 5678 5690 5704 5715
5719 5711 5704 5696 5687 5678 5669 5660 5650 5640 5627 5615 5602 5586 5573 5565 5558 5553 5541 5538 5534 5528 5521 5515 5510 5506 5503 5507 5510 5520 5535 5552 5569 5585 5598 5613 5623 5635 5647 5655 5669 5683 5697
5716 5708 5701 5692 5683 5674 5664 5653 5643 5631 5619 5607 5595 5582 5570 5557 5548 5541 5536 5531 5525 5519 5512 5507 5503 5501 5501 5503 5506 5511 5527 5540 5552 5566 5581 5595 5606 5616 5625 5637 5647 5663 5678
5714 5705 5697 5689 5679 5668 5659 5648 5637 5624 5611 5598 5584 5572 5561 5551 5542 5534 5527 5524 5519 5513 5507 5503 5501 5499 5500 5503 5508 5515 5533 5538 5542 5555 5569 5579 5590 5603 5614 5623 5631 5643 5658
5711 5703 5694 5685 5675 5664 5653 5642 5630 5618 5603 5591 5577 5564 5553 5543 5536 5528 5522 5518 5514 5509 5504 5501 5499 5498 5499 5503 5511 5520 5529 5529 5540 5545 5558 5569 5578 5590 5602 5612 5622 5632 5642
5708 5699 5690 5681 5671 5660 5648 5636 5625 5610 5597 5582 5569 5557 5546 5538 5531 5524 5518 5514 5510 5506 5502 5500 5499 5499 5501 5502 5507 5512 5521 5526 5532 5542 5553 5565 5569 5581 5592 5601 5611 5620 5630
5706 5697 5687 5677 5668 5655 5644 5631 5618 5604 5590 5576 5562 5551 5542 5535 5529 5522 5515 5510 5507 5504 5501 5499 5498 5499 5502 5503 5506 5510 5516 5520 5524 5531 5543 5554 5563 5573 5582 5591 5601 5612 5619
5703 5694 5685 5675 5665 5652 5640 5628 5613 5598 5583 5568 5556 5546 5539 5533 5527 5520 5513 5508 5504 5502 5499 5498 5498 5498 5500 5504 5502 5506 5508 5515 5518 5523 5531 5542 5550 5562 5572 5582 5591 5603 5608
5701 5692 5683 5672 5662 5650 5638 5625 5610 5595 5578 5563 5550 5542 5536 5530 5525 5518 5512 5507 5502 5499 5497 5497 5496 5497 5499 5501 5503 5505 5508 5509 5512 5517 5523 5535 5543 5550 5561 5570 5580 5589 5598
5699 5690 5681 5670 5660 5649 5637 5623 5607 5592 5577 5560 5547 5539 5533 5527 5523 5519 5512 5507 5503 5500 5497 5496 5495 5496 5497 5499 5501 5502 5504 5508 5511 5513 5521 5530 5539 5545 5550 5559 5569 5578 5586
5697 5689 5679 5669 5659 5648 5636 5622 5607 5592 5577 5560 5546 5537 5532 5529 5524 5520 5514 5509 5505 5502 5498 5496 5494 5494 5495 5496 5498 5501 5503 5507 5509 5514 5518 5524 5531 5539 5545 5551 5559 5566 5573
5695 5686 5677 5668 5658 5648 5636 5623 5610 5593 5578 5562 5548 5539 5534 5530 5525 5521 5516 5512 5507 5504 5500 5497 5495 5494 5493 5493 5494 5496 5498 5502 5506 5510 5515 5518 5523 5531 5539 5546 5555 5561 5566
5694 5685 5676 5667 5658 5648 5637 5625 5612 5596 5581 5566 5553 5543 5536 5531 5527 5523 5519 5514 5510 5506 5502 5499 5496 5494 5492 5492 5492 5493 5494 5496 5500 5503 5507 5512 5517 5523 5529 5538 5544 5551 5558
5693 5684 5675 5666 5658 5650 5639 5627 5615 5601 5586 5572 5558 5548 5541 5534 5530 5525 5521 5517 5512 5508 5503 5500 5497 5494 5493 5491 5491 5491 5492 5493 5495 5497 5500 5504 5507 5511 5518 5527 5532 5539 5547
5691 5683 5675 5666 5658 5650 5640 5629 5618 5606 5592 5578 5564 5553 5546 5540 5535 5529 5525 5521 5517 5512 5507 5503 5498 5495 5493 5492 5491 5490 5491 5491 5492 5494 5496 5499 5503 5507 5512 5518 5523 5531 5537
5690 5682 5674 5666 5658 5651 5642 5631 5621 5610 5598 5584 5571 5559 5550 5544 5539 5534 5529 5524 5521 5517 5512 5507 5502 5499 5495 5493 5491 5490 5490 5491 5492 5493 5495 5497 5499 5503 5507 5511 5516 5521 5525
5689 5681 5674 5666 5658 5651 5643 5634 5624 5614 5603 5591 5578 5566 5555 5548 5543 5539 5532 5528 5524 5520 5515 5511 5507 5502 5499 5496 5494 5492 5492 5492 5492 5493 5494 5496 5497 5499 5502 5505 5509 5513 5517
5689 5681 5673 5666 5658 5651 5644 5636 5627 5618 5608 5597 5586 5574 5562 5552 5546 5541 5536 5532 5527 5523 5519 5515 5511 5507 5504 5500 5498 5496 5495 5494 5494 5494 5494 5496 5497 5498 5499 5501 5504 5506 5508